Location: Felsheim
(48.7267°N, 10.7386°E)
Time: 08:43:34
(UTC+00:00)

Cosmos 1980 Rocket - Pass Details

Date: 09 April 2020
Orbit: 828 x 851 km, 71.0° (Epoch: 01 June)

Event Time Altitude Azimuth Distance (km) Brightness Sun altitude
Rises 21:37:02 0° 330° (NNW) 3,389 6.6 -29.1°
Reaches altitude 10° 21:39:29 10° 328° (NNW) 2,454 5.5 -29.2°
Enters shadow 21:44:33 64° 280° (W) 927 2.4 -29.6°
